| time (UTC) | temp F | wind direction | speed MPH | gust MPH | rain 1hr in | rain 24hr in | rain mn in | humidity % | barometer mb |
| 20260903123051 | 82 | 155 | 7.0 | 15.0 | 0.00 | 0.00 | 0.00 | 84 | 1012.3 |
| 20260903121553 | 82 | 142 | 6.0 | 15.0 | 0.00 | 0.00 | 0.00 | 84 | 1012.1 |
| 20260903120053 | 82 | 132 | 8.0 | 13.0 | 0.00 | 0.00 | 0.00 | 84 | 1012.0 |
| 20260903114543 | 82 | 132 | 9.0 | 15.0 | 0.00 | 0.00 | 0.00 | 84 | 1012.0 |
| 20260903113050 | 82 | 136 | 10.0 | 16.0 | 0.00 | 0.00 | 0.00 | 83 | 1011.9 |
| 20260903111541 | 82 | 142 | 7.0 | 12.0 | 0.00 | 0.00 | 0.00 | 83 | 1011.9 |
| 20260903110045 | 82 | 164 | 8.0 | 16.0 | 0.00 | 0.00 | 0.00 | 83 | 1012.0 |
| 20260903104544 | 83 | 136 | 7.0 | 15.0 | 0.00 | 0.00 | 0.00 | 83 | 1012.0 |
| 20260903103043 | 83 | 126 | 8.0 | 15.0 | 0.00 | 0.00 | 0.00 | 83 | 1011.8 |
| 20260903101554 | 83 | 145 | 8.0 | 22.0 | 0.00 | 0.00 | 0.00 | 82 | 1011.9 |
| 20260903100048 | 83 | 148 | 9.0 | 20.0 | 0.00 | 0.00 | 0.00 | 82 | 1012.0 |
| 20260903094555 | 83 | 146 | 9.0 | 17.0 | 0.00 | 0.00 | 0.00 | 81 | 1012.0 |
| 20260903093049 | 83 | 146 | 10.0 | 17.0 | 0.00 | 0.00 | 0.00 | 81 | 1012.1 |
| 20260903091552 | 83 | 183 | 10.0 | 16.0 | 0.00 | 0.00 | 0.00 | 80 | 1012.5 |
| 20260903090057 | 84 | 149 | 8.0 | 17.0 | 0.00 | 0.00 | 0.00 | 80 | 1012.4 |
| 20260903084554 | 84 | 215 | 10.0 | 18.0 | 0.00 | 0.00 | 0.00 | 79 | 1012.4 |
| 20260903083048 | 84 | 142 | 9.0 | 16.0 | 0.00 | 0.00 | 0.00 | 79 | 1012.7 |
| 20260903081544 | 84 | 153 | 9.0 | 18.0 | 0.00 | 0.00 | 0.00 | 79 | 1012.5 |
| 20260903080048 | 84 | 130 | 8.0 | 18.0 | 0.00 | 0.00 | 0.00 | 80 | 1012.7 |
| 20260903074555 | 84 | 140 | 13.0 | 21.0 | 0.00 | 0.00 | 0.00 | 80 | 1012.6 |
| 20260903073051 | 84 | 162 | 10.0 | 21.0 | 0.00 | 0.00 | 0.00 | 80 | 1012.5 |
| 20260903071548 | 84 | 139 | 16.0 | 24.0 | 0.00 | 0.00 | 0.00 | 79 | 1012.5 |
| 20260903070044 | 85 | 139 | 13.0 | 22.0 | 0.00 | 0.00 | 0.00 | 79 | 1012.8 |
| 20260903064542 | 85 | 128 | 11.0 | 21.0 | 0.00 | 0.00 | 0.00 | 78 | 1012.7 |
| 20260903063105 | 85 | 123 | 13.0 | 21.0 | 0.00 | 0.00 | 0.00 | 78 | 1012.8 |
| 20260903061546 | 85 | 119 | 11.0 | 19.0 | 0.00 | 0.00 | 0.00 | 79 | 1012.8 |
| 20260903060044 | 85 | 155 | 12.0 | 22.0 | 0.00 | 0.00 | 0.00 | 80 | 1012.8 |
| 20260903054543 | 85 | 145 | 10.0 | 20.0 | 0.00 | 0.00 | 0.00 | 79 | 1013.0 |
| 20260903053103 | 85 | 139 | 12.0 | 21.0 | 0.00 | 0.00 | 0.00 | 79 | 1013.0 |
| 20260903051552 | 85 | 136 | 12.0 | 19.0 | 0.00 | 0.00 | 0.00 | 79 | 1013.0 |
| 20260903050101 | 85 | 134 | 10.0 | 19.0 | 0.00 | 0.00 | 0.00 | 79 | 1013.1 |
| 20260903044556 | 85 | 132 | 10.0 | 16.0 | 0.00 | 0.00 | 0.00 | 79 | 1013.1 |
| 20260903043049 | 86 | 162 | 9.0 | 19.0 | 0.00 | 0.00 | 0.00 | 78 | 1013.2 |
| 20260903041554 | 86 | 157 | 9.0 | 18.0 | 0.00 | 0.00 | 0.00 | 78 | 1013.3 |
| 20260903040054 | 86 | 135 | 12.0 | 19.0 | 0.00 | 0.00 | 0.00 | 77 | 1013.4 |
| 20260903034545 | 86 | 126 | 11.0 | 19.0 | 0.00 | 0.00 | 0.00 | 76 | 1013.4 |
| 20260903033042 | 86 | 142 | 12.0 | 24.0 | 0.00 | 0.00 | 0.00 | 75 | 1013.2 |
| 20260903031606 | 87 | 130 | 11.0 | 23.0 | 0.00 | 0.00 | 0.00 | 75 | 1012.9 |
| 20260903030050 | 87 | 128 | 9.0 | 22.0 | 0.00 | 0.00 | 0.00 | 75 | 1012.8 |
| 20260903024547 | 87 | 112 | 10.0 | 20.0 | 0.00 | 0.00 | 0.00 | 75 | 1012.6 |
| 20260903023043 | 88 | 135 | 10.0 | 23.0 | 0.00 | 0.00 | 0.00 | 74 | 1012.0 |
| 20260903021554 | 88 | 134 | 12.0 | 24.0 | 0.00 | 0.00 | 0.00 | 72 | 1011.9 |
| 20260903020049 | 89 | 134 | 12.0 | 22.0 | 0.00 | 0.00 | 0.00 | 70 | 1011.5 |
| 20260903014553 | 90 | 97 | 7.0 | 22.0 | 0.00 | 0.00 | 0.00 | 67 | 1011.1 |
| 20260903013045 | 91 | 142 | 11.0 | 21.0 | 0.00 | 0.00 | 0.00 | 64 | 1010.9 |
| 20260903011545 | 92 | 115 | 12.0 | 22.0 | 0.00 | 0.00 | 0.00 | 60 | 1010.6 |
| 20260903010050 | 94 | 135 | 10.0 | 22.0 | 0.00 | 0.00 | 0.00 | 53 | 1010.3 |
| 20260903004549 | 94 | 126 | 9.0 | 18.0 | 0.00 | 0.00 | 0.00 | 52 | 1010.2 |
| 20260903003043 | 95 | 136 | 11.0 | 22.0 | 0.00 | 0.00 | 0.00 | 52 | 1010.0 |
| 20260903001552 | 97 | 147 | 11.0 | 19.0 | 0.00 | 0.00 | 0.00 | 47 | 1010.0 |
| 20260903000056 | 97 | 145 | 14.0 | 25.0 | 0.00 | 0.00 | 0.00 | 44 | 1009.8 |
| 20260902234547 | 98 | 132 | 11.0 | 19.0 | 0.00 | 0.00 | 0.00 | 42 | 1009.8 |
| 20260902233044 | 99 | 135 | 9.0 | 20.0 | 0.00 | 0.00 | 0.00 | 42 | 1009.7 |
| 20260902231542 | 99 | 110 | 10.0 | 19.0 | 0.00 | 0.00 | 0.00 | 43 | 1009.6 |
| 20260902230051 | 100 | 152 | 12.0 | 21.0 | 0.00 | 0.00 | 0.00 | 44 | 1009.8 |
| 20260902224545 | 100 | 112 | 11.0 | 20.0 | 0.00 | 0.00 | 0.00 | 45 | 1009.7 |
| 20260902223043 | 101 | 117 | 9.0 | 16.0 | 0.00 | 0.00 | 0.00 | 46 | 1009.7 |
| 20260902221553 | 101 | 151 | 9.0 | 19.0 | 0.00 | 0.00 | 0.00 | 47 | 1009.7 |
| 20260902220047 | 101 | 159 | 7.0 | 18.0 | 0.00 | 0.00 | 0.00 | 46 | 1009.5 |
| 20260902214543 | 101 | 117 | 10.0 | 19.0 | 0.00 | 0.00 | 0.00 | 46 | 1009.7 |
| 20260902213049 | 101 | 360 | 4.0 | 19.0 | 0.00 | 0.00 | 0.00 | 45 | 1009.9 |
| 20260902211553 | 102 | 114 | 10.0 | 17.0 | 0.00 | 0.00 | 0.00 | 43 | 1010.1 |
| 20260902210114 | 102 | 134 | 4.0 | 16.0 | 0.00 | 0.00 | 0.00 | 39 | 1010.3 |
| 20260902204550 | 101 | 142 | 8.0 | 18.0 | 0.00 | 0.00 | 0.00 | 39 | 1010.5 |
| 20260902203050 | 102 | 155 | 9.0 | 14.0 | 0.00 | 0.00 | 0.00 | 39 | 1010.8 |
| 20260902201600 | 102 | 228 | 6.0 | 18.0 | 0.00 | 0.00 | 0.00 | 41 | 1011.0 |
| 20260902200043 | 100 | 146 | 5.0 | 16.0 | 0.00 | 0.00 | 0.00 | 42 | 1011.4 |
| 20260902194544 | 100 | 129 | 6.0 | 16.0 | 0.00 | 0.00 | 0.00 | 44 | 1011.8 |
| 20260902193049 | 100 | 101 | 10.0 | 19.0 | 0.00 | 0.00 | 0.00 | 45 | 1012.0 |
| 20260902191551 | 100 | 153 | 7.0 | 14.0 | 0.00 | 0.00 | 0.00 | 44 | 1012.1 |
| 20260902190054 | 99 | 135 | 8.0 | 18.0 | 0.00 | 0.00 | 0.00 | 48 | 1012.3 |
| 20260902184554 | 99 | 119 | 5.0 | 15.0 | 0.00 | 0.00 | 0.00 | 49 | 1012.4 |
| 20260902183050 | 99 | 98 | 4.0 | 16.0 | 0.00 | 0.00 | 0.00 | 49 | 1012.7 |
| 20260902181559 | 98 | 139 | 8.0 | 16.0 | 0.00 | 0.00 | 0.00 | 51 | 1013.1 |
| 20260902180106 | 97 | 153 | 7.0 | 16.0 | 0.00 | 0.00 | 0.00 | 53 | 1013.3 |
| 20260902174555 | 96 | 105 | 4.0 | 16.0 | 0.00 | 0.00 | 0.00 | 56 | 1013.6 |
| 20260902173044 | 95 | 96 | 3.0 | 17.0 | 0.00 | 0.00 | 0.00 | 57 | 1013.9 |
| 20260902171554 | 95 | 121 | 8.0 | 20.0 | 0.00 | 0.00 | 0.00 | 57 | 1014.1 |
| 20260902170049 | 94 | 133 | 7.0 | 15.0 | 0.00 | 0.00 | 0.00 | 59 | 1014.2 |
| 20260902164543 | 93 | 127 | 10.0 | 18.0 | 0.00 | 0.00 | 0.00 | 59 | 1014.3 |
| 20260902163043 | 93 | 126 | 5.0 | 14.0 | 0.00 | 0.00 | 0.00 | 61 | 1014.4 |
| 20260902161554 | 91 | 167 | 10.0 | 17.0 | 0.00 | 0.00 | 0.00 | 63 | 1014.5 |
| 20260902160052 | 91 | 139 | 10.0 | 18.0 | 0.00 | 0.00 | 0.00 | 65 | 1014.6 |
| 20260902154543 | 90 | 184 | 9.0 | 20.0 | 0.00 | 0.00 | 0.00 | 66 | 1014.5 |
| 20260902153051 | 89 | 127 | 8.0 | 19.0 | 0.00 | 0.00 | 0.00 | 68 | 1014.5 |
| 20260902151548 | 88 | 163 | 8.0 | 20.0 | 0.00 | 0.00 | 0.00 | 71 | 1014.4 |
| 20260902150041 | 87 | 149 | 13.0 | 19.0 | 0.00 | 0.00 | 0.00 | 72 | 1014.4 |
| 20260902144600 | 86 | 122 | 11.0 | 19.0 | 0.00 | 0.00 | 0.00 | 75 | 1014.6 |
| 20260902143052 | 85 | 139 | 11.0 | 18.0 | 0.00 | 0.00 | 0.00 | 77 | 1014.5 |
| 20260902141541 | 85 | 138 | 9.0 | 20.0 | 0.00 | 0.00 | 0.00 | 80 | 1014.5 |
| 20260902140041 | 84 | 123 | 10.0 | 19.0 | 0.00 | 0.00 | 0.00 | 81 | 1014.5 |
| 20260902134549 | 83 | 165 | 11.0 | 16.0 | 0.00 | 0.00 | 0.00 | 83 | 1014.5 |
| 20260902133048 | 82 | 155 | 8.0 | 13.0 | 0.00 | 0.00 | 0.00 | 84 | 1014.5 |
| 20260902131544 | 82 | 136 | 5.0 | 9.0 | 0.00 | 0.00 | 0.00 | 85 | 1014.3 |
| 20260902130043 | 82 | 174 | 5.0 | 11.0 | 0.00 | 0.00 | 0.00 | 85 | 1014.2 |
| 20260902124542 | 82 | 137 | 7.0 | 13.0 | 0.00 | 0.00 | 0.00 | 85 | 1014.0 |